Weather History for Lowell, ID

Change the Weather History Date:

Tuesday, March 5, 2013

  Actual Average Record
Temperature  
Mean Temperature 37 °F -  
Max Temperature 48 °F 45 °F 64 °F (2005)
Min Temperature 28 °F 29 °F 27 °F (1998)
Degree Days  
Heating Degree Days 28    
Moisture  
Dew Point 28 °F    
Average Humidity 76    
Maximum Humidity 96    
Minimum Humidity 39    
Precipitation  
Precipitation 0.00 in - - ()
Sea Level Pressure  
Sea Level Pressure 30.08 in    
Wind  
Wind Speed 3 mph (North)    
Max Wind Speed 7 mph    
Max Gust Speed -    
Averages and records for this station are not official NWS values.
T = Trace of Precipitation, MM = Missing Value Source: NWS Daily Summary

Daily Weather History Graph

Daily Weather History Graph

Search for Another Location

Airport:

Trip Planner

Search our weather history database for the weather conditions in past years. The results will help you decide how hot, cold, wet, or windy it might be!

Date:

Astronomy

Mar. 05, 2013 Rise Set
Actual Time 7:13 AM MST 6:34 PM MST
Civil Twilight 6:43 AM MST 7:04 PM MST
Nautical Twilight 6:08 AM MST 7:39 PM MST
Astronomical Twilight 5:33 AM MST 8:14 PM MST
Moon 2:44 AM MST (3/5) 12:03 PM MST (3/5)
Length of Visible Light 12h 21m
Length of Day
11h 21m
Last Quarter, 40% of the Moon is Illuminated
Mar 5
Last Quarter
Mar 11
New
Mar 19
First Quarter
Mar 27
Full
Apr 2
Last Quarter

Hourly Weather History & Observations

Time (MST) Temp. Windchill Dew Point Humidity Pressure Visibility Wind Dir Wind Speed Gust Speed Precip Events Conditions
12:52 AM 28.0 °F - 26.1 °F 92% 30.23 in - Calm Calm - N/A   Unknown
1:52 AM 28.9 °F 25.2 °F 27.0 °F 92% 30.22 in - WNW 3.5 mph - N/A   Unknown
2:52 AM 28.9 °F 23.9 °F 27.0 °F 92% 30.23 in - NNW 4.6 mph - N/A   Unknown
3:52 AM 28.0 °F 22.8 °F 27.0 °F 96% 30.22 in - Variable 4.6 mph - N/A   Unknown
4:52 AM 28.0 °F 20.8 °F 26.1 °F 92% 30.24 in - NNW 6.9 mph - N/A   Unknown
5:52 AM 28.0 °F 24.2 °F 26.1 °F 92% 30.22 in - North 3.5 mph - N/A   Unknown
6:52 AM 28.0 °F 21.7 °F 26.1 °F 92% 30.23 in - North 5.8 mph - N/A   Unknown
7:52 AM 28.0 °F - 26.1 °F 92% 30.22 in - Calm Calm - N/A   Unknown
8:52 AM 30.9 °F 25.2 °F 24.1 °F 76% 30.20 in - North 5.8 mph - N/A   Unknown
9:52 AM 34.0 °F 28.8 °F 26.1 °F 73% 30.17 in - North 5.8 mph - N/A   Unknown
10:52 AM 35.1 °F 32.2 °F 25.0 °F 67% 30.14 in - North 3.5 mph - N/A   Unknown
11:52 AM 39.9 °F 37.8 °F 23.0 °F 51% 30.09 in - Variable 3.5 mph - N/A   Unknown
12:52 PM 44.1 °F 42.5 °F 23.0 °F 43% 30.03 in - Variable 3.5 mph - N/A   Unknown
1:52 PM 46.9 °F - 23.0 °F 39% 29.99 in - Calm Calm - N/A   Unknown
2:52 PM 46.0 °F - 26.1 °F 46% 29.96 in - Calm Calm - N/A   Unknown
3:52 PM 42.1 °F 40.2 °F 33.1 °F 70% 29.96 in - North 3.5 mph - N/A   Unknown
4:52 PM 42.1 °F 40.2 °F 32.0 °F 67% 29.94 in - North 3.5 mph - N/A   Unknown
5:52 PM 39.9 °F - 33.1 °F 77% 29.94 in - Calm Calm - N/A   Unknown
6:52 PM 37.9 °F 35.5 °F 32.0 °F 79% 29.95 in - North 3.5 mph - N/A   Unknown
7:52 PM 37.9 °F - 32.0 °F 79% 29.95 in - Calm Calm - N/A   Unknown
8:52 PM 37.9 °F 35.5 °F 32.0 °F 79% 29.94 in - NW 3.5 mph - N/A   Unknown
9:52 PM 37.0 °F 34.5 °F 32.0 °F 82% 29.93 in - North 3.5 mph - N/A   Unknown
10:52 PM 37.0 °F - 32.0 °F 82% 29.92 in - Calm Calm - N/A   Unknown
11:52 PM 36.0 °F 32.1 °F 32.0 °F 86% 29.89 in - NNW 4.6 mph - N/A   Unknown